Weather in Kirov

Russia / Kirov Oblast     58°36′12″N   49°40′04″E
temp.,
°C
wind,
m/s
gust,
m/s
humid.,
%
clouds,
%
prec.,
mm/h
press.,
hPa
HPBL,
m
4 july, mon
mon400:00+12n127381 0.0 101538
03:00+8nne258786 0.0 1015101
06:00+12ne3770100 0.0 1015340
09:00+16ne575471 0.0 10151194
12:00+19ne46445 0.0 10151719
15:00+20ne463898 0.0 10151917
18:00+18ene3652100 0.0 1015448
21:00+12ene2266100 0.0 101631
5 july, tue
tue500:00+10e1172100 0.0 101710
03:00+9nw117260 0.0 101810
06:00+14nw126099 0.0 1018167
09:00+19nw234793 0.0 1018809
12:00+22nw23385 0.0 10171668
15:00+24wnw23355 0.0 10151891
18:00+22w24555 0.0 1015233
21:00+16wsw23750 0.0 101549
6 july, wed
wed600:00+13wsw35782 0.0 101572
03:00+12wsw23860 0.0 101663
06:00+17w24690 0.0 1015178
09:00+22w34520 0.0 1014563
12:00+26w44480 0.0 10141404
15:00+27wsw44443 0.0 10131665
18:00+25w36561 0.0 1013295
21:00+18sw35835 0.0 101484
7 july, thu
thu700:00+17sw258693 0.0 101480
03:00+16s23955 0.0 101446
06:00+20ssw24795 0.0 1014223
09:00+25sw34605 0.0 1014792
12:00+26ssw246158 1.6 10141155
15:00+26sw2562100 2.5 1013464
18:00+25ssw387118 0.2 1013470
21:00+21ssw3118779 0.3 1013255
8 july, fri
fri800:00+19w3892100 0.4 1013251
03:00+18w2498100 3.1 1014123
06:00+19wnw3596100 0.0 1015431
09:00+18nw3489100 0.1 1016450
12:00+22w456422 0.0 10161063
15:00+24wnw34465 0.0 10161228
18:00+23nw24574 0.0 1016305
21:00+18nw11704 0.0 101711